COSMOS 1275 DEB, 42125

Orbit data source: Space-Track

COSMOS 1275 DEB, 42125 is space debris in LEO originally from a launch on Thu, 04 Jun 1981 UTC launched from the Plesetsk Missile And Space Complex (PKMTR). Debris objects in space refer to the collection of defunct objects orbiting the Earth. Examples of debris include non-operational satellites, rocket bodies, and fragments generated from explosions, collisions, or faulty payload assembly.

Loading next visibility...
Identifier
42125, 1981-053QM
Orbit
LEO
Country
Flag of CISCIS
Related business
Manufacturer
Unknown
Mission
Spacecraft
Bus & Motor
Unknown
Mass
Unknown
Launch date (UTC)
1981-06-04 (45 years ago)
Launch vehicle
Unknown
Launch site
Plesetsk Missile And Space Complex (PKMTR)
Object type
Payload
Rocket body
Debris
Shape & HBR
Unknown shape, 0.1 m
Radar Cross Section
Small (<0.1 m²)

Expand to show TLE details & history
Last TLE update: 3 weeks ago

TLE from 3 weeks ago
0 COSMOS 1275 DEB
1 42125U 81053QM  25335.09092498  .00002652  00000-0  15155-2 0  9994
2 42125  82.9342  94.6637 0049114  17.8240 342.4643 14.08656334569477
Epoch: 2025-12-01T02:10Z
TLE epoch observation values (Epoch: 2025-12-01T02:10:55.918Z)
Latitude
-0.00002°
Longitude
-8.2647°
Altitude
833.013 km
Speed
7.454 km/s
True Right ascension
06h 18m 39s
True Declination
0° 00' 00"
Sunlit
Object was in full shadow at epoch
Visualization orbit readout
Latitude
Unknown
Longitude
Unknown
Altitude
Unknown
Speed
Unknown
Apparent Right ascension
Unknown
Apparent Declination
Unknown
Sunlit
N/A
Visualization observer readout
Local Sidereal Time
16:19:08
Azimuth
Unknown
Elevation
Unknown
Doppler factor
Unknown
Orbital elements
Apogee altitude
896.631 km
Perigee altitude
825.521 km
Semi-major axis
7,239.213 km
Eccentricity
0.00491
Inclination
82.9342°
RAAN
94.6637°
Arg. of periapsis
17.824°
True anomaly
342.29373°
Mean anomaly
342.4643°
Eccentric anomaly
342.37911°
Mean motion
3.52376 °/min
Orbital period
102.16 mins
BSTAR
0.0015155
Loading maneuver chart data...
Computing Atmospheric mass density...
Loading historical data...
Loading historical data...
Loading historical data...
Loading historical data...
Loading historical data...
Loading historical data...
Loading historical data...

Documentation

Showing up to 5 results
|